Mount Pleasant, SC

6:03 AM EDT on October 20, 2017 (GMT -0400)
Mount Pleasant

Weather History for KLRO - March, 2013

Change the Weather History Date:

Friday, March 22, 2013

  Actual Average (KCHS) Record (KCHS)
Temperature  
Mean Temperature 43 °F -  
Max Temperature 51 °F 69 °F 88 °F (2011)
Min Temperature 35 °F 47 °F 27 °F (1956)
Degree Days  
Heating Degree Days 22    
Moisture  
Dew Point 28 °F    
Average Humidity 54    
Maximum Humidity 81    
Minimum Humidity 37    
Precipitation  
Precipitation 0.00 in - - ()
Sea Level Pressure  
Sea Level Pressure 30.05 in    
Wind  
Wind Speed 3 mph (NE)    
Max Wind Speed 9 mph    
Max Gust Speed -    
Visibility 10 miles    
Events      
Averages and records for this station are not official NWS values.
T = Trace of Precipitation, MM = Missing Value Source: NWS Daily Summary

Daily Weather History Graph

Daily Weather History Graph

Search for Another Location

Airport or City:

Trip Planner

Search our weather history database for the weather conditions in past years. The results will help you decide how hot, cold, wet, or windy it might be!

Date:

Astronomy

Mar. 22, 2013 Rise Set
Actual Time 7:19 AM EDT 7:32 PM EDT
Civil Twilight 6:55 AM EDT 7:57 PM EDT
Nautical Twilight 6:26 AM EDT 8:25 PM EDT
Astronomical Twilight 5:57 AM EDT 8:54 PM EDT
Moon 3:10 PM EDT (3/22) 4:05 AM EDT (3/22)
Length of Visible Light 13h 01m
Length of Day
12h 12m
Waxing Gibbous, 77% of the Moon is Illuminated
Mar 22
Waxing Gibbous
Mar 27
Full
Apr 3
Last Quarter
Apr 10
New
Apr 18
First Quarter

Hourly Weather History & Observations

Time (EDT) Temp. Windchill Dew Point Humidity Pressure Visibility Wind Dir Wind Speed Gust Speed Precip Events Conditions
12:15 AM 39.2 °F - 30.2 °F 70% 29.96 in 10.0 mi Calm Calm - N/A   Clear
12:35 AM 37.4 °F - 30.2 °F 75% 29.97 in 10.0 mi Calm Calm - N/A   Clear
12:55 AM 35.6 °F - 30.2 °F 81% 29.97 in 10.0 mi Calm Calm - N/A   Clear
1:15 AM 35.6 °F - 30.2 °F 81% 29.98 in 10.0 mi Calm Calm - N/A   Clear
1:35 AM 39.2 °F 34.2 °F 26.6 °F 61% 29.98 in 10.0 mi North 6.9 mph - N/A   Clear
1:55 AM 39.2 °F 37.0 °F 23.0 °F 52% 29.98 in 10.0 mi NNE 3.5 mph - N/A   Clear
2:15 AM 39.2 °F 35.9 °F 23.0 °F 52% 29.98 in 10.0 mi North 4.6 mph - N/A   Clear
2:35 AM 37.4 °F 32.8 °F 23.0 °F 56% 29.98 in 10.0 mi NNE 5.8 mph - N/A   Clear
3:15 AM 37.4 °F 34.9 °F 23.0 °F 56% 29.99 in 10.0 mi NNE 3.5 mph - N/A   Clear
3:35 AM 37.4 °F 32.8 °F 23.0 °F 56% 29.99 in 10.0 mi NNE 5.8 mph - N/A   Clear
3:55 AM 37.4 °F 33.8 °F 23.0 °F 56% 30.00 in 10.0 mi North 4.6 mph - N/A   Clear
4:15 AM 37.4 °F 32.8 °F 21.2 °F 52% 30.01 in 10.0 mi NNE 5.8 mph - N/A   Clear
4:35 AM 37.4 °F 32.8 °F 21.2 °F 52% 30.02 in 10.0 mi North 5.8 mph - N/A   Clear
4:55 AM 37.4 °F 32.8 °F 21.2 °F 52% 30.03 in 10.0 mi North 5.8 mph - N/A   Partly Cloudy
5:15 AM 37.4 °F 32.8 °F 21.2 °F 52% 30.04 in 10.0 mi North 5.8 mph - N/A   Mostly Cloudy
5:35 AM 37.4 °F 32.8 °F 21.2 °F 52% 30.05 in 10.0 mi NNE 5.8 mph - N/A   Overcast
5:55 AM 37.4 °F 33.8 °F 21.2 °F 52% 30.06 in 10.0 mi North 4.6 mph - N/A   Mostly Cloudy
6:15 AM 37.4 °F 32.8 °F 21.2 °F 52% 30.06 in 10.0 mi NNE 5.8 mph - N/A   Clear
6:35 AM 37.4 °F 32.8 °F 21.2 °F 52% 30.07 in 10.0 mi NNE 5.8 mph - N/A   Clear
6:55 AM 37.4 °F 33.8 °F 21.2 °F 52% 30.08 in 10.0 mi NNE 4.6 mph - N/A   Scattered Clouds
7:15 AM 37.4 °F 32.8 °F 19.4 °F 48% 30.09 in 10.0 mi North 5.8 mph - N/A   Overcast
7:35 AM 37.4 °F 33.8 °F 21.2 °F 52% 30.10 in 10.0 mi North 4.6 mph - N/A   Overcast
7:55 AM 37.4 °F 34.9 °F 21.2 °F 52% 30.10 in 10.0 mi North 3.5 mph - N/A   Overcast
8:15 AM 37.4 °F 33.8 °F 19.4 °F 48% 30.08 in 10.0 mi NE 4.6 mph - N/A   Mostly Cloudy
8:35 AM 37.4 °F - 21.2 °F 52% 30.09 in 10.0 mi Calm Calm - N/A   Partly Cloudy
8:55 AM 39.2 °F 37.0 °F 19.4 °F 45% 30.09 in 10.0 mi NNE 3.5 mph - N/A   Scattered Clouds
9:15 AM 39.2 °F 37.0 °F 21.2 °F 49% 30.09 in 10.0 mi NNE 3.5 mph - N/A   Mostly Cloudy
9:35 AM 39.2 °F - 21.2 °F 49% 30.10 in 10.0 mi Calm Calm - N/A   Overcast
9:55 AM 41.0 °F 38.0 °F 23.0 °F 49% 30.08 in 10.0 mi North 4.6 mph - N/A   Mostly Cloudy
10:15 AM 41.0 °F 36.4 °F 21.2 °F 45% 30.10 in 10.0 mi NNE 6.9 mph - N/A   Scattered Clouds
10:35 AM 42.8 °F - 23.0 °F 46% 30.10 in 10.0 mi Calm Calm - N/A   Scattered Clouds
10:55 AM 44.6 °F - 23.0 °F 43% 30.10 in 10.0 mi Calm Calm - N/A   Partly Cloudy
11:15 AM 46.4 °F 45.2 °F 21.2 °F 37% 30.09 in 10.0 mi NNE 3.5 mph - N/A   Partly Cloudy
11:35 AM 46.4 °F 42.9 °F 23.0 °F 40% 30.09 in 10.0 mi North 6.9 mph - N/A   Partly Cloudy
11:55 AM 46.4 °F 44.3 °F 23.0 °F 40% 30.08 in 10.0 mi NNE 4.6 mph - N/A   Clear
12:15 PM 48.2 °F - 26.6 °F 43% 30.10 in 10.0 mi ESE 9.2 mph - N/A   Clear
12:35 PM 48.2 °F - 26.6 °F 43% 30.11 in 10.0 mi SE 5.8 mph - N/A   Clear
12:55 PM 48.2 °F - 24.8 °F 40% 30.10 in 10.0 mi SSE 5.8 mph - N/A   Clear
1:15 PM 48.2 °F - 28.4 °F 46% 30.11 in 10.0 mi ESE 4.6 mph - N/A   Clear
1:35 PM 50.0 °F - 30.2 °F 47% 30.10 in 10.0 mi Calm Calm - N/A   Clear
2:15 PM 51.8 °F - 30.2 °F 44% 30.08 in 10.0 mi SSE 6.9 mph - N/A   Clear
2:35 PM 50.0 °F - 32.0 °F 50% 30.09 in 10.0 mi SSE 5.8 mph - N/A   Clear
2:55 PM 50.0 °F - 32.0 °F 50% 30.07 in 10.0 mi SSE 5.8 mph - N/A   Partly Cloudy
3:15 PM 51.8 °F - 32.0 °F 47% 30.07 in 10.0 mi SSE 6.9 mph - N/A   Clear
3:35 PM 51.8 °F - 32.0 °F 47% 30.05 in 10.0 mi South 8.1 mph - N/A   Clear
3:55 PM 51.8 °F - 32.0 °F 47% 30.06 in 10.0 mi SSW 6.9 mph - N/A   Clear
4:15 PM 51.8 °F - 32.0 °F 47% 30.05 in 10.0 mi Calm Calm - N/A   Partly Cloudy
4:35 PM 51.8 °F - 33.8 °F 50% 30.04 in 10.0 mi SE 4.6 mph - N/A   Clear
4:55 PM 51.8 °F - 33.8 °F 50% 30.04 in 10.0 mi SSE 6.9 mph - N/A   Partly Cloudy
5:15 PM 51.8 °F - 33.8 °F 50% 30.04 in 10.0 mi South 5.8 mph - N/A   Partly Cloudy
5:35 PM 51.8 °F - 33.8 °F 50% 30.04 in 10.0 mi South 5.8 mph - N/A   Partly Cloudy
5:55 PM 51.8 °F - 33.8 °F 50% 30.04 in 10.0 mi South 5.8 mph - N/A   Clear
6:15 PM 51.8 °F - 33.8 °F 50% 30.04 in 10.0 mi Calm Calm - N/A   Clear
6:35 PM 51.8 °F - 33.8 °F 50% 30.04 in 10.0 mi South 3.5 mph - N/A   Clear
6:55 PM 50.0 °F - 33.8 °F 54% 30.03 in 10.0 mi South 4.6 mph - N/A   Clear
7:15 PM 50.0 °F - 35.6 °F 58% 30.04 in 10.0 mi South 5.8 mph - N/A   Clear
7:35 PM 50.0 °F - 35.6 °F 58% 30.06 in 10.0 mi SSW 5.8 mph - N/A   Clear
7:55 PM 48.2 °F - 35.6 °F 62% 30.06 in 10.0 mi Calm Calm - N/A   Scattered Clouds
8:15 PM 48.2 °F - 37.4 °F 66% 30.06 in 10.0 mi Calm Calm - N/A   Mostly Cloudy
8:35 PM 48.2 °F - 37.4 °F 66% 30.06 in 10.0 mi Calm Calm - N/A   Overcast
8:55 PM 48.2 °F - 37.4 °F 66% 30.06 in 10.0 mi Calm Calm - N/A   Overcast
9:15 PM 48.2 °F - 37.4 °F 66% 30.07 in 10.0 mi Calm Calm - N/A   Overcast
9:35 PM 50.0 °F - 37.4 °F 62% 30.07 in 10.0 mi Calm Calm - N/A   Overcast
9:55 PM 50.0 °F - 37.4 °F 62% 30.06 in 10.0 mi Calm Calm - N/A   Overcast
10:15 PM 50.0 °F - 37.4 °F 62% 30.07 in 10.0 mi Calm Calm - N/A   Overcast
10:35 PM 48.2 °F - 39.2 °F 71% 30.07 in 10.0 mi Calm Calm - N/A   Overcast
10:55 PM 48.2 °F - 39.2 °F 71% 30.07 in 10.0 mi Calm Calm - N/A   Overcast
11:15 PM 48.2 °F - 39.2 °F 71% 30.07 in 10.0 mi Calm Calm - N/A   Overcast
11:35 PM 48.2 °F - 41.0 °F 76% 30.07 in 10.0 mi Calm Calm - N/A   Overcast
11:55 PM 46.4 °F - 39.2 °F 76% 30.06 in 10.0 mi Calm Calm - N/A   Overcast